www.pogodaiklimat.ru

Погода и климат >> Архив погоды >> Доминиканская Республика >> Ла Романа аэропорт


ПОГОДА в Ла Романа аэропорту

  • Прогноз погоды в Ла Романа аэропорту
  • Монитор погоды в Ла Романа аэропорту

АРХИВ ПОГОДЫ в Ла Романа аэропорту

Время (UTC), дата Ветер
(напр.,м/с)
 
Видим.   Явления Облачность Т
(С)
Тd
(С)
f
(%)
Тe
(С)
Тes
(С)
Комфортность P
(гПа)
Po
(гПа)
Тmin
(С)
Tmax
(С)
R
(мм)
R24
(мм)
S
(см)
18 16.01 Ю 3 16 км 4/4 600 м
[Cu med, cong]
+28.0 +21.9 69 +36 +42 очень
душно
1018.0 1018.0 +14.6 +29.5
21 16.01 Ю 3 16 км 4/4 600 м
[Cu med, cong]
+26.7 +20.2 68 +33 +34 очень
душно
1017.0 1017.0
00 17.01 штиль 0 16 км 3/3 540 м
[Cu med, cong]
+21.9 +19.1 84 +27 +27 душно 1018.5 1019.0 +14.6 +29.8
03 17.01 штиль 0 16 км 3/3 480 м
[Cu med, cong]
+18.0 +17.7 98 +18 +18 1019.5 1020.0
12 17.01 штиль 0 16 км 3/3 480 м
[Cu med, cong]
+18.0 +18.0 100 +18 +19 1019.0 1019.0 +15.2 +29.8
15 17.01 штиль 0 16 км 3/3 540 м
[Cu med, cong]
+27.8 +22.2 72 +36 +47 очень
душно
1020.5 1021.0
18 17.01 штиль 0 16 км 5/5 600 м
[Cu med, cong]
+27.8 +20.8 66 +35 +43 очень
душно
1018.0 1018.0 +15.2 +30.2
21 17.01 штиль 0 16 км {дождь} 6/6 540 м
[Sc]
+23.2 +22.9 98 +32 +33 очень
душно
1017.5 1018.0 3
00 18.01 штиль 0 16 км 4/4 540 м
[Sc]
+20.7 +20.4 98 +25 +25 комфорт 1018.0 1018.0 +15.2 +30.2
03 18.01 штиль 0 16 км 3/3 480 м
[Sc]
+20.0 +19.8 99 +23 +23 комфорт 1019.8 1020.0
12 18.01 штиль 0 16 км 3/3 540 м
[Cu med, cong]
+20.2 +19.9 98 +24 +25 комфорт 1018.0 1018.0 +17.2 +30.2
15 18.01 ЮВ 4 16 км 8/4 600 м
[Cu med, cong Ac trans]
+27.4 +22.8 76 +36 +39 очень
душно
1018.7 1019.0
18 18.01 СВ 3 6000 м гроза, ливневой дождь 9/8 480 м
[Cb cap As op]
+23.8 +22.7 94 +31 +33 очень
душно
1017.1 1017.0 +17.2 +25.8 4
21 18.01 штиль 0 16 км {гроза, дождь} 9/6 480 м
[Cb cap Ac trans]
+22.8 +22.4 98 +31 +31 очень
душно
1016.4 1016.0 2
00 19.01 штиль 0 16 км {гроза, дождь} 9/6 420 м
[Cb cap Ac trans]
+21.0 +20.7 98 +26 +26 душно 1017.2 1017.0 +17.2 +25.0 1
03 19.01 штиль 0 16 км 9/6 360 м
[Cb cap Ac trans]
+20.6 +20.4 99 +25 +25 комфорт 1018.0 1018.0
12 19.01 штиль 0 16 км 4/4 480 м
[Cu med, cong]
+19.8 +19.6 99 +23 +24 комфорт 1017.6 1018.0 +16.5 +25.8
15 19.01 В 4 16 км 6/5 600 м
[Cu med, cong Ac trans]
+26.2 +22.3 79 +34 +37 очень
душно
1019.2 1019.0
18 19.01 В 5 16 км 5/5 750 м
[Cu med, cong]
+28.6 +19.8 59 +35 +38 очень
душно
1017.4 1017.0 +16.5 +29.0
21 19.01 В 2 16 км 4/4 750 м
[Cu med, cong]
+27.8 +17.6 54 +32 +33 душно 1016.0 1016.0
00 20.01 штиль 0 16 км 3/3 540 м
[Cu med, cong]
+23.0 +20.6 86 +30 +30 очень
душно
1017.5 1018.0 +16.5 +29.0
03 20.01 штиль 0 16 км 1/1 480 м
[Cu med, cong]
+19.0 +18.7 98 +21 +21 комфорт 1018.5 1019.0
12 20.01 штиль 0 16 км 1/1 480 м
[Cu med, cong]
+19.6 +19.3 98 +22 +23 комфорт 1017.7 1018.0 +18.0 +29.0
15 20.01 СВ 3 16 км 5/5 600 м
[Cu med, cong]
+27.0 +21.6 72 +34 +39 очень
душно
1019.5 1020.0
18 20.01 В 5 16 км 4/4 840 м
[Cu med, cong]
+30.0 +18.0 49 +35 +38 очень
душно
1017.5 1018.0 +18.0 +30.0
21 20.01 ЮВ 3 16 км 3/3 750 м
[Cu med, cong]
+27.4 +19.1 61 +33 +34 очень
душно
1016.2 1016.0
00 21.01 штиль 0 16 км 3/3 540 м
[Cu med, cong]
+23.2 +21.5 90 +31 +31 очень
душно
1017.5 1018.0 +18.0 +31.0
03 21.01 штиль 0 16 км 1/1 480 м
[Cu med, cong]
+18.8 +18.5 98 +20 +20 1019.0 1019.0
12 21.01 штиль 0 16 км 3/3 480 м
[Cu med, cong]
+19.6 +19.3 98 +22 +23 комфорт 1019.0 1019.0 +18.1 +31.0
15 21.01 ЮВ 2 16 км 4/4 600 м
[Cu med, cong]
+27.4 +22.0 72 +35 +42 очень
душно
1020.6 1021.0
18 21.01 16 км н/о +29.2 +22.1 66 +38 +39 очень
душно
1018.4 1018.0 +18.1 +30.2
21 21.01 ЮЗ 7 16 км 5/5 660 м
[Cu med, cong]
+28.4 +20.9 64 +36 +36 очень
душно
1016.8 1017.0
00 22.01 штиль 0 16 км 3/3 540 м
[Cu med, cong]
+22.8 +19.6 82 +29 +29 очень
душно
1018.5 1019.0 +18.1 +30.2
03 22.01 СВ 3 16 км 3/3 540 м
[Cu med, cong]
+19.0 +18.8 99 +21 +21 комфорт 1019.7 1020.0
12 22.01 В 3 16 км 8/8 480 м
[Cu Sc]
+20.0 +19.7 98 +24 +24 комфорт 1020.4 1020.0 +18.2 +30.2
15 22.01 В 5 8000 м осадки на расстоянии 9/9 480 м
[Cu Sc]
+25.3 +24.5 95 +35 +36 очень
душно
1022.0 1022.0
18 22.01 С 3 8000 м осадки на расстоянии 6/6 480 м
[Cu Sc]
+26.5 +24.5 89 +37 +41 очень
душно
1020.6 1021.0 +18.2 +27.0 6
21 22.01 В 6 16 км 5/5 600 м
[Cu med, cong]
+27.4 +21.9 72 +35 +36 очень
душно
1019.6 1020.0
00 23.01 СВ 5 16 км в посл. час дождь 4/4 540 м
[Cu med, cong]
+23.3 +22.4 95 +32 +32 очень
душно
1021.1 1021.0 +18.2 +28.6 0.0
03 23.01 СВ 3 16 км {дождь} 4/4 480 м
[Cu med, cong]
+20.2 +20.0 99 +24 +24 комфорт 1022.0 1022.0
12 23.01 СВ 4 8000 м осадки на расстоянии 4/4 480 м
[Cu Sc]
+21.0 +20.4 96 +26 +27 душно 1021.0 1021.0 +19.6 +28.6 0.5

 

Местоположение метеостанции Ла Романа аэропорт (Доминиканская Республика): широта 18.45 долгота -68.92 высота над уровнем моря 94 м.

В архиве по умолчанию представлена погода в Ла Романа аэропорту за последнюю неделю. Архивные данные за месяц целиком и за предыдущие месяцы, начиная с января 2011 года, Вы можете получить, выбрав интересующий диапазон дат из раскрывающегося списка и нажав кнопку "Ввод!".


*Определитесь, кто Вы:
робот инопланетянин человек

Внимание! Время в таблицах - всемирное. Для получения местного времени необходимо прибавить поправку, которая равна -4 ч.

Смотрите также архив погоды в соседних городах и на ближайших метеорологических станциях:

Погода в Пунта-Кане (Доминиканская Республика) (61 км)
Погода в Лас Америкас (Доминиканская Республика) (78 км)
Погода в Сабана де ла Мар (Доминиканская Республика) (82 км)
Погода в Санто-Доминго (Доминиканская Республика) (101 км)
Погода в Сантьяго (Доминиканская Республика) (218 км)
Погода в Пуэрто-Плате (Доминиканская Республика) (224 км)
Погода в Бараоне (Доминиканская Республика) (232 км)
Погода в Шарлотта-Амалии (Виргинские Острова) (418 км)
Погода в Пунта-де-Маиси (Куба) (584 км)
Погода в Принцессы Юлианы аэропорту (Нидерландские Антилы) (616 км)

Пояснения к столбцам:

Ветер - указаны скорость ветра в м/с - средняя за 10 мин, порывы в срок и между сроками (в фигурных скобках) и направление, откуда дует ветер: С - северный, СВ - северо-восточный, В - восточный, ЮВ - юго-восточный, Ю - южный, ЮЗ - юго-западный, З - западный, СЗ - северо-западный.
Видимость - горизонтальная дальность видимости в метрах или километрах. При видимости от 1 до 10 км при отсутствии осадков обычно наблюдается дымка, при ухудшении видимости до 1 км и менее - туман. В сухую погоду видимость может ухудшаться дымом, пылью или мглою.
Явления - указаны атмосферные явления, наблюдавшиеся в срок или в последний час перед сроком; фигурными скобками обозначены явления, наблюдавшиеся между сроками (за 1-3 часа до срока); квадратными скобками обозначены град или гололедные отложения с указанием их диаметра в мм.
Облачность - указаны через наклонную черту общая и нижняя облачность в баллах и высота нижней границы облаков в метрах; квадратными скобками обозначены формы облаков: Ci - перистые, Cs - перисто-слоистые, Cc - перисто-кучевые, Ac - высококучевые, As - высокослоистые, Sc - слоисто-кучевые, Ns - слоисто-дождевые, Cu - кучевые, Cb - кучево-дождевые. Подробнее классификацию облаков см. в Атласе облаков (PDF).
T - Температура воздуха - температура, измеренная на высоте 2 м над землей.
Td - Температура точки росы - температура, при понижении до которой содержащийся в воздухе водяной пар достигнет насыщения.
f - Относительная влажность воздуха - влажноcть воздуха, измеренная на высоте 2 м над землей.
Te - Эффективная температура - температура, которую ощущает одетый по сезону человек в тени. Характеристика душности погоды. При расчете учитывается влияние влажности воздуха и скорости ветра на теплоощущения человека.
Tes - Эффективная температура на солнце - температура, которую ощущает человек, с поправкой на солнечный нагрев. Характеристика знойности погоды. Зависит от высоты солнца над горизонтом, облачности и скорости ветра. Ночью, в пасмурную погоду, а также при ветре 12 м/с и более поправка равна нулю.
P - Атмосферное давление - приведенное к уровню моря атмосферное давление.
Po - Атмосферное давление - измеренное на уровне метеостанции атмосферное давление.
Tmin - Минимальная температура - минимум температуры воздуха на высоте 2 м над землей.
Tmax - Максимальная температура - максимум температуры воздуха на высоте 2 м над землей.
R - Количество осадков - Количество выпавших осадков за период времени, мм. При наведении курсора мыши на число - период времени, за который выпало указанное количество осадков.
R24 - Количество осадков - Количество выпавших осадков за 24 часа, мм.
S - Снежный покров - Высота снежного покрова, см. При наведении курсора мыши на число - состояние снежного покрова и степень покрытия местности в баллах.